{"data":{"norad_id":61047,"intl_designator":"2024-163C","name":"SPACEMOBILE-001","alt_names":[],"object_type":"PAYLOAD","status":"ACTIVE","operator":null,"country":"US","launch_date":"2024-09-12","launch_site_code":"AFETR","launch_vehicle":null,"mission":null,"orbit_class":"UNKNOWN","rcs_meters":null,"size_class":null,"mass_kg":null,"dimensions":null,"purposes":[],"wikipedia_slug":null,"has_3d_model":false,"image_url":null,"decayed_at":null,"tle_current":{"epoch":"2026-05-25T03:11:30.381792Z","epoch_age_seconds":66868,"freshness":"FRESH","line1":"1 61047U 24163C   26145.13299053  .00001895  00000+0  99720-4 0  9997","line2":"2 61047  52.9691  55.1267 0008801  56.1971 303.9860 15.20723981 94251","mean_motion":15.20723981,"eccentricity":0.0008801,"inclination_deg":52.9691,"raan_deg":55.1267,"arg_perigee_deg":56.1971,"mean_anomaly_deg":303.986,"bstar":9.972e-5,"rev_number":9425,"period_min":94.691740117959,"perigee_km":497.59890790522,"apogee_km":509.71223919318,"semimajor_km":6881.7925735492,"source":"CELESTRAK","updated_at":"2026-05-25T13:38:02.279918Z"}}}